Weather History for Savanna, IL

Change the Weather History Date:

Friday, August 29, 2014

  Actual Average (KCWI) Record (KCWI)
Temperature  
Mean Temperature 78 °F -  
Max Temperature 90 °F 83 °F 97 °F (1984)
Min Temperature 66 °F 60 °F 45 °F (1986)
Cooling Degree Days 13    
Growing Degree Days 28 (Base 50)    
Moisture  
Dew Point 68 °F    
Average Humidity 76    
Maximum Humidity 94    
Minimum Humidity 50    
Precipitation  
Precipitation 0.00 in - - ()
Sea Level Pressure  
Sea Level Pressure 29.88 in    
Wind  
Wind Speed 6 mph (SSE)    
Max Wind Speed 14 mph    
Max Gust Speed 18 mph    
Visibility 9 miles    
Events Rain    
Averages and records for this station are not official NWS values.
T = Trace of Precipitation, MM = Missing Value Source: NWS Daily Summary

Daily Weather History Graph

Daily Weather History Graph

Search for Another Location

Airport:

Trip Planner

Search our weather history database for the weather conditions in past years. The results will help you decide how hot, cold, wet, or windy it might be!

Date:

Astronomy

Aug. 29, 2014 Rise Set
Actual Time 6:22 AM CDT 7:39 PM CDT
Civil Twilight 5:53 AM CDT 8:07 PM CDT
Nautical Twilight 5:19 AM CDT 8:42 PM CDT
Astronomical Twilight 4:42 AM CDT 9:18 PM CDT
Moon 10:17 AM CDT (8/29) 9:31 PM CDT (8/29)
Length of Visible Light 14h 13m
Length of Day
13h 16m
Waxing Crescent, 15% of the Moon is Illuminated
Aug 29
Waxing Crescent
Sep 2
First Quarter
Sep 8
Full
Sep 15
Last Quarter
Sep 24
New

Hourly Weather History & Observations

Time (CDT) Temp. Heat Index Dew Point Humidity Pressure Visibility Wind Dir Wind Speed Gust Speed Precip Events Conditions
12:15 AM 67.1 °F - 64.4 °F 91% 29.98 in 10.0 mi SE 3.5 mph - N/A   Clear
12:35 AM 67.3 °F - 64.6 °F 91% 29.98 in 10.0 mi SE 4.6 mph - N/A   Clear
12:55 AM 67.3 °F - 64.6 °F 91% 29.98 in 10.0 mi SE 3.5 mph - N/A   Clear
1:15 AM 67.3 °F - 64.6 °F 91% 29.97 in 10.0 mi SE 3.5 mph - N/A   Clear
1:35 AM 67.1 °F - 64.4 °F 91% 29.96 in 10.0 mi SSE 3.5 mph - N/A   Clear
1:55 AM 66.7 °F - 64.4 °F 92% 29.96 in 7.0 mi SSE 3.5 mph - N/A   Clear
2:15 AM 66.6 °F - 64.4 °F 93% 29.95 in 7.0 mi SE 3.5 mph - N/A   Clear
2:35 AM 66.4 °F - 64.4 °F 93% 29.95 in 7.0 mi Calm Calm - N/A   Clear
2:55 AM 66.6 °F - 64.4 °F 93% 29.94 in 5.0 mi SE 3.5 mph - N/A   Scattered Clouds
3:15 AM 66.7 °F - 64.8 °F 93% 29.94 in 5.0 mi Calm Calm - N/A   Scattered Clouds
3:35 AM 67.1 °F - 64.9 °F 93% 29.94 in 5.0 mi Calm Calm - N/A   Scattered Clouds
3:55 AM 66.7 °F - 64.8 °F 93% 29.94 in 5.0 mi Calm Calm - N/A   Scattered Clouds
4:15 AM 67.1 °F - 64.9 °F 93% 29.93 in 4.0 mi SE 3.5 mph - N/A   Scattered Clouds
4:35 AM 67.5 °F - 65.5 °F 93% 29.93 in 4.0 mi SE 3.5 mph - N/A   Mostly Cloudy
4:55 AM 67.6 °F - 65.7 °F 93% 29.93 in 4.0 mi SSE 3.5 mph - N/A   Mostly Cloudy
5:15 AM 67.3 °F - 65.3 °F 93% 29.92 in 5.0 mi SE 4.6 mph - N/A   Scattered Clouds
5:35 AM 67.5 °F - 65.5 °F 93% 29.92 in 5.0 mi SE 4.6 mph - N/A   Clear
5:55 AM 67.5 °F - 65.5 °F 93% 29.92 in 5.0 mi Calm Calm - N/A   Scattered Clouds
6:15 AM 67.3 °F - 65.3 °F 93% 29.92 in 5.0 mi SE 3.5 mph - N/A   Scattered Clouds
6:35 AM 67.3 °F - 65.3 °F 93% 29.93 in 4.0 mi Calm Calm - N/A   Clear
6:55 AM 68.0 °F - 66.2 °F 94% 29.95 in 5.0 mi NW 3.5 mph - N/A   Scattered Clouds
7:15 AM 67.8 °F - 65.8 °F 93% 29.94 in 3.0 mi ENE 3.5 mph - N/A   Mostly Cloudy
7:35 AM 68.9 °F - 66.7 °F 93% 29.94 in 4.0 mi East 3.5 mph - N/A   Mostly Cloudy
7:55 AM 69.6 °F - 67.5 °F 93% 29.94 in 5.0 mi ENE 3.5 mph - N/A   Scattered Clouds
8:15 AM 71.1 °F - 68.2 °F 91% 29.94 in 7.0 mi Calm Calm - N/A   Scattered Clouds
8:35 AM 72.5 °F - 68.2 °F 86% 29.93 in 10.0 mi SE 6.9 mph - N/A   Clear
8:55 AM 73.0 °F - 68.2 °F 85% 29.92 in 10.0 mi SE 8.1 mph - N/A   Clear
9:15 AM 74.3 °F - 68.7 °F 83% 29.92 in 10.0 mi SSE 8.1 mph - N/A   Scattered Clouds
9:35 AM 75.9 °F - 68.7 °F 78% 29.92 in 10.0 mi South 6.9 mph - N/A   Scattered Clouds
9:55 AM 77.0 °F - 68.7 °F 75% 29.92 in 10.0 mi South 10.4 mph - N/A   Scattered Clouds
10:15 AM 78.1 °F - 68.9 °F 73% 29.92 in 10.0 mi South 9.2 mph - N/A   Scattered Clouds
10:35 AM 78.8 °F - 69.4 °F 73% 29.92 in 10.0 mi South 10.4 mph - N/A   Scattered Clouds
10:55 AM 79.9 °F - 69.6 °F 71% 29.92 in 10.0 mi South 9.2 mph - N/A   Scattered Clouds
11:15 AM 81.3 °F 84.8 °F 70.0 °F 68% 29.92 in 10.0 mi South 10.4 mph - N/A   Scattered Clouds
11:35 AM 82.8 °F 86.9 °F 70.3 °F 66% 29.92 in 10.0 mi SSE 9.2 mph - N/A   Scattered Clouds
11:55 AM 83.7 °F 88.0 °F 70.2 °F 64% 29.91 in 10.0 mi SSE 10.4 mph 16.1 mph N/A   Scattered Clouds
12:15 PM 83.8 °F 88.3 °F 70.5 °F 64% 29.90 in 10.0 mi South 12.7 mph 18.4 mph N/A   Scattered Clouds
12:35 PM 84.6 °F 88.8 °F 69.8 °F 61% 29.90 in 10.0 mi South 10.4 mph - N/A   Scattered Clouds
12:55 PM 84.2 °F 88.4 °F 70.0 °F 62% 29.88 in 10.0 mi South 11.5 mph - N/A   Clear
1:15 PM 86.0 °F 91.5 °F 71.2 °F 61% 29.88 in 10.0 mi SSE 12.7 mph - N/A   Scattered Clouds
1:35 PM 85.8 °F 90.8 °F 70.7 °F 60% 29.88 in 10.0 mi South 10.4 mph - N/A   Scattered Clouds
1:55 PM 86.7 °F 91.7 °F 70.5 °F 58% 29.87 in 10.0 mi SSW 10.4 mph - N/A   Clear
2:15 PM 86.9 °F 91.3 °F 69.4 °F 56% 29.86 in 10.0 mi SW 9.2 mph - N/A   Clear
2:35 PM 86.7 °F 91.4 °F 69.8 °F 57% 29.86 in 10.0 mi SSW 10.4 mph - N/A   Scattered Clouds
2:55 PM 88.3 °F 92.8 °F 69.3 °F 53% 29.84 in 10.0 mi South 10.4 mph - N/A   Scattered Clouds
3:15 PM 88.5 °F 92.7 °F 69.1 °F 52% 29.83 in 10.0 mi South 10.4 mph - N/A   Clear
3:35 PM 88.7 °F 92.2 °F 67.8 °F 50% 29.83 in 10.0 mi South 10.4 mph - N/A   Clear
3:55 PM 90.3 °F 95.2 °F 69.3 °F 50% 29.83 in 10.0 mi South 10.4 mph 16.1 mph N/A   Scattered Clouds
4:15 PM 89.6 °F 93.9 °F 68.9 °F 50% 29.82 in 10.0 mi South 10.4 mph 18.4 mph N/A   Mostly Cloudy
4:35 PM 88.9 °F 93.0 °F 68.4 °F 51% 29.82 in 10.0 mi South 12.7 mph 16.1 mph N/A   Mostly Cloudy
4:55 PM 88.5 °F 91.9 °F 67.5 °F 50% 29.82 in 10.0 mi South 11.5 mph - N/A   Scattered Clouds
5:15 PM 88.0 °F 91.8 °F 68.5 °F 52% 29.82 in 10.0 mi SSE 13.8 mph - N/A   Mostly Cloudy
5:35 PM 87.4 °F 91.5 °F 69.1 °F 54% 29.81 in 10.0 mi SE 12.7 mph 17.3 mph N/A   Mostly Cloudy
5:55 PM 85.6 °F 89.7 °F 69.4 °F 58% 29.81 in 10.0 mi SSE 11.5 mph - N/A   Clear
6:15 PM 84.2 °F 88.4 °F 69.8 °F 62% 29.81 in 10.0 mi SSE 9.2 mph - N/A   Clear
6:35 PM 82.9 °F 86.7 °F 69.8 °F 64% 29.82 in 10.0 mi SSE 8.1 mph - N/A   Clear
6:55 PM 81.7 °F 85.1 °F 69.4 °F 66% 29.81 in 10.0 mi SSE 8.1 mph - N/A   Clear
7:15 PM 80.6 °F 83.6 °F 69.3 °F 68% 29.81 in 10.0 mi SSE 5.8 mph - N/A   Clear
7:35 PM 79.2 °F - 70.2 °F 74% 29.81 in 10.0 mi SSE 6.9 mph - N/A   Clear
7:55 PM 78.8 °F - 70.0 °F 74% 29.80 in 10.0 mi SE 8.1 mph - N/A   Clear
8:15 PM 79.2 °F - 69.8 °F 73% 29.79 in 10.0 mi SE 11.5 mph - N/A   Scattered Clouds
8:35 PM 78.3 °F - 68.7 °F 72% 29.80 in 10.0 mi SSE 11.5 mph - N/A   Clear
8:55 PM 77.5 °F - 67.5 °F 71% 29.81 in 10.0 mi SSE 10.4 mph - N/A   Clear
9:15 PM 76.1 °F - 66.0 °F 71% 29.81 in 10.0 mi SSE 11.5 mph - N/A   Clear
9:35 PM 76.3 °F - 65.7 °F 70% 29.82 in 10.0 mi South 9.2 mph - N/A   Clear
9:55 PM 75.4 °F - 66.2 °F 73% 29.81 in 10.0 mi South 11.5 mph 16.1 mph N/A   Clear
10:15 PM 74.5 °F - 66.2 °F 75% 29.81 in 10.0 mi SSE 9.2 mph - N/A   Scattered Clouds
10:35 PM 74.1 °F - 66.4 °F 77% 29.82 in 10.0 mi SSE 9.2 mph - N/A   Mostly Cloudy
10:55 PM 73.8 °F - 66.7 °F 79% 29.82 in 10.0 mi South 9.2 mph - N/A   Overcast
11:15 PM 73.8 °F - 66.6 °F 78% 29.82 in 10.0 mi South 12.7 mph - N/A Rain Rain
11:35 PM 72.5 °F - 67.3 °F 84% 29.82 in 10.0 mi South 10.4 mph - N/A   Overcast
11:55 PM 72.5 °F - 67.5 °F 84% 29.82 in 10.0 mi South 8.1 mph - N/A   Overcast